Tracking 25709 objects as of 23-May-2022
HD Live streaming from Space Station
objects crossing your sky now

FLOCK 4V 12

Track FLOCK 4V 12 now!
10-day predictions
FLOCK 4V 12 is classified as:


NORAD ID: 46283
Int'l Code: 2020-061M
Perigee: 529.6 km
Apogee: 533.9 km
Inclination: 97.5 °
Period: 95.1 minutes
Semi major axis: 6902 km
RCS: Unknown
Launch date: September 3, 2020
Source: United States (US)
Launch site: FRENCH GUIANA (FRGUI)
aabbcc
Your satellite tracking list
Your tracking list is empty




NASA's NSSDC Master Catalog

Two Line Element Set (TLE):
1 46283U 20061M   22143.45960078  .00012889  00000-0  71667-3 0  9991
2 46283  97.4505 214.2673 0003095  18.9163 341.2183 15.13805113 94716
Source of the keplerian elements: AFSPC